Regional Weather Roundup
Issued by NWS Charleston, SC

Current Version | Previous Version | Text Only | Print | Product List | Glossary Off
Versions: 1 2 3 4 5 6 7 8 9 10 11 12 13 14 15 16 17 18 19 20 21 22 23 24 25 26 27 28 29 30 31 32 33 34 35 36 37 38 39 40 41 42 43 44 45 46 47 48 49 50

000
ASUS42 KCHS 251427
RWRCHS

REGIONAL WEATHER ROUNDUP
NATIONAL WEATHER SERVICE CHARLESTON SC
1000 AM EDT SAT MAR 25 2017

NOTE: "FAIR" INDICATES FEW OR NO CLOUDS BELOW 12,000 FEET WITH NO
SIGNIFICANT WEATHER AND/OR OBSTRUCTIONS TO VISIBILITY.

NOT ALL STATIONS ARE QUALITY CONTROLLED. USE DATA WITH CAUTION...
ESPECIALLY DEWPOINT OBSERVATIONS.

SCZ027-030-031-034>040-042>050-251500-
...SOUTHEAST SOUTH CAROLINA...

CITY           SKY/WX    TMP DP  RH WIND       PRES   REMARKS
N CHARLESTON   CLOUDY    71  49  45 SE8       30.35S
WATERFRONT PRK   N/A     67  54  62 VRB2      30.34R
JOHNS ISLAND   CLOUDY    70  54  56 E7        30.35S
PINOPOLIS        N/A     63  57  82 CALM      30.26R
MONCKS CORNER  CLOUDY    66  52  59 S3        30.35S
SUMMERVILLE    CLOUDY    66  54  63 CALM      30.36S
BEAUFORT MCAS  CLOUDY    67  59  75 CALM      30.34S
BEAUFORT ARPT  CLOUDY    68  55  64 E6        30.34S
HILTON HEAD IS PTSUNNY   68  57  68 SE3       30.34S
WALTERBORO     CLOUDY    64  54  68 SE5       30.35S
ALLENDALE      CLOUDY    64  57  77 E5        30.33S

...SOUTHERN MIDLANDS AND PEE DEE...

CITY           SKY/WX    TMP DP  RH WIND       PRES   REMARKS
GEORGETOWN     CLOUDY    66  54  63 CALM      30.37S
KINGSTREE      FAIR      64  52  63 SE5       30.35F
ORANGEBURG     PTSUNNY   62  55  77 SE3       30.35S
BARNWELL       FAIR      66  57  72 SE7       30.33F
AIKEN          FAIR      63  54  72 S6        30.36S
MANNING        FAIR      64  54  68 CALM      30.35S
COLUMBIA       CLOUDY    60  53  77 CALM      30.34S
SUMTER         CLOUDY    62  54  74 S6        30.32F
FLORENCE       MOSUNNY   63  55  75 S7        30.35F
MYRTLE BEACH   CLOUDY    70  52  52 SW10      30.37R
N MYRTLE BEACH CLOUDY    66  56  70 S5        30.37R

$$

GAZ063-065-086>088-099>101-113>116-118-119-134>141-150-251500-
...SOUTHEAST GEORGIA...

CITY           SKY/WX    TMP DP  RH WIND       PRES   REMARKS
SAVANNAH ARPT  CLOUDY    69  55  60 SE7       30.33S
HUNTER AAF     CLOUDY    71  57  61 SE7       30.30S
FORT STEWART   CLOUDY    64  57  80 CALM      30.30S
STATESBORO     MOSUNNY   69  60  72 SE5       30.33S
SYLVANIA       CLOUDY   N/A N/A N/A SE5       30.34F
CLAXTON        FAIR     N/A N/A N/A E6        30.32F

...CSRA...CENTRAL AND FAR SOUTHEAST GEORGIA...

CITY           SKY/WX    TMP DP  RH WIND       PRES   REMARKS
THOMSON        MOSUNNY   67  56  67 W7        30.37S
AUGUSTA-BUSH   CLOUDY    62  56  80 SE3       30.33S
AUGUSTA-DANIEL MOSUNNY   61  53  75 SE5       30.33S
SWAINSBORO     FAIR      66  57  72 SE8       30.32S
VIDALIA        CLOUDY    66  59  77 SE6       30.31F
EASTMAN        FAIR      67  50  54 SE6       30.33S
HAZLEHURST     FAIR      68  61  79 SE6       30.30S
ALMA           PTSUNNY   67  60  78 SE5       30.30S
WAYCROSS       CLOUDY    70  64  82 SE3       30.31S
JESUP          FAIR      68  59  73 CALM      30.32S
BAXLEY         FAIR      70  63  78 SE7       30.30F
BRUNSWICK      CLOUDY    70  63  78 CALM      30.32S
SAINT SIMONS   CLOUDY    69  58  67 E7        30.31R

$$

SCZ027-028-034-036>038-045-046-048>050-GAZ119-141-251500-
...LAKE AND SUPPLEMENTAL COASTAL OBSERVATIONS...

STATION/POSITION TIME  TEMP    WIND        PRES    WAVE   SWELL
                       AIR SEA DIR/SP/G            HT/PER HT/PER/DIR
                 (UTC) (F)     (DEG/KT/KT) (MB)    (FT/S) (FT/S/D)
WINYAH BAY       1330   67     270/  1     1028.0S
LAKE MURRAY      1350   61      CALM  /  1 1026.8S
ACE BASIN NERRS  1330   66        CALM     1027.0S
FORT PULASKI     1400   65 61   80/  5/  6 1027.3
SAPELO ISLAND    1400   70     110/  5     1027.0

$$

ANZ835-935-AMZ111-154-330-350-352-354-370-450-454-472-251500-
...C-MAN AND BUOY OBSERVATIONS...

STATION/POSITION TIME  TEMP    WIND        PRES    WAVE   SWELL
                       AIR SEA DIR/SP/G            HT/PER HT/PER/DIR
                 (UTC) (F)     (DEG/KT/KT) (MB)    (FT/S) (FT/S/D)
BUOY 41004       1350   69 70  120/  2/  4 1027.7R   4/ 8   3/130/ 8
BUOY 41008       1350   64 62   80/  4/  4 1026.3R   4/ 7   5/110/ 7
FOLLY BEACH CMAN 1400   64      90/  2/  3 1028.4R
CAPERS NEARSHORE 1408   63      20/  2/  4 1028.1R
FRIPP NEARSHORE  1408   63 60   30/  2/  6 1027.1R


STATION/POSITION TIME  TEMP    WIND        PRES    WAVE   SWELL
                       AIR SEA DIR/SP/G            HT/PER HT/PER/DIR
                 (UTC) (F)     (DEG/KT/KT) (MB)    (FT/S) (FT/S/D)
5E ST. MARYS GA  1400      64                N/A     5/ 8   2/110/11
FRYING PAN BUOY  1410   69 73  160/  8/ 10 1028.5
BUOY 41025       1350   68 76  290/ 16/ 17 1028.3R   3/ 5   2/100/11
CAPE LOOKOUT NC  1400   69     210/  5/  6 1028.3R
BUOY 41002       1350   65 73   80/ 10/ 14 1029.5R   5/ 7   5/110/ 7
BUOY 41010       NOT AVBL
ST AUGUSTINE FL  1400   67 66  100/  5/  6 1026.3R


$$



USA.gov is the U.S. government's official web portal to all federal, state and local government web resources and services.